Simultaneous Nadir Overpasses (SNOs) Predictions

Prediction of SNOs between METOP-C and LANDSAT-8 Satellite Orbit:

Table of predicted SNOs for the next 14.0 days since TLE Epoch: 6/17/2023
Index Date (METOP-C) Time (METOP-C) Lat,Lon (METOP-C) SZA (METOP-C ) Date (LANDSAT-8) Time (LANDSAT-8) Lat,Lon (LANDSAT-8) SZA (LANDSAT-8 ) Distance(km) Time Diff (sec)
1 06/17/2023 08:25:21 81.18, 94.40 60.03 06/17/2023 08:26:27 81.18, 94.30 60.05 1.80 66
2 06/17/2023 09:16:01 -81.20, -97.74 119.91 06/17/2023 09:15:53 -81.20, -97.78 119.92 0.89 8
3 06/20/2023 03:59:44 81.17, 160.64 59.93 06/20/2023 04:00:43 81.17, 160.53 59.94 1.96 59
4 06/20/2023 04:50:24 -81.19, -31.42 119.99 06/20/2023 04:50:09 -81.19, -31.53 120.02 1.85 15
5 06/22/2023 23:34:06 81.17,-133.20 59.89 06/22/2023 23:34:57 81.17,-133.04 59.93 2.75 51
6 06/23/2023 00:24:46 -81.19, 34.80 120.03 06/23/2023 00:24:23 -81.19, 34.92 120.03 2.08 23
7 06/25/2023 19:08:27 81.18, -66.36 59.98 06/25/2023 19:09:11 81.18, -66.41 59.99 0.92 44
8 06/25/2023 19:59:07 -81.20, 101.70 119.93 06/25/2023 19:58:37 -81.20, 101.57 119.96 2.24 30
9 06/28/2023 14:42:49 81.18, 0.02 60.07 06/28/2023 14:43:25 81.18, 0.04 60.08 0.33 36



Historial Predications of SNOs between METOP-C and LANDSAT-8
